IRIDIUM 20 [+]

Last updated on Thu Apr 12 2018 00:19:35 GMT+0000 (Coordinated Universal Time)

1 25577U 98074A 18101.48029986 .00000021 00000-0 43725-6 0 9991 2 25577 86.4199 130.7508 0002131 110.1521 249.9907 14.38607900196584
UTC large
Height (km)
Speed (km/s)
/
Latitude / Longitude
Inclination (degrees)
Orbital Period (minutes)
Azimuth
Elevation
Range (km)
Doppler Factor

Next 0 passes for location: London (51.5072 / 0.1276)

Sorry there are no passes over London.